Theta_e
299 297 295 292 286 288 283 280 281 284 290 296 301 305 308 311 324 327 326 325 326 329 332 334 336 338 339 341 342 342 344 346
297 296 296 292 294 286 283 279 278 283 287 289 297 299 309 316 312 326 327 325 326 328 331 334 336 338 339 342 342 343 343 346
292 289 288 289 289 287 285 283 280 279 285 293 298 302 304 319 324 324 328 327 326 328 330 334 337 337 338 341 342 342 343 344
288 293 294 291 289 287 284 283 284 284 286 300 299 303 307 314 324 331 329 330 328 328 329 332 335 337 338 341 342 343 344 344
284 286 291 290 291 289 288 284 283 283 287 303 304 311 315 318 324 330 333 330 328 328 326 330 333 336 337 340 342 343 344 344
281 285 288 288 291 292 288 283 285 286 290 297 306 310 314 320 325 329 330 333 331 328 327 329 333 335 338 340 343 344 344 344
286 289 289 289 290 291 288 288 286 290 291 302 307 311 317 320 325 328 328 330 331 332 333 331 332 335 338 341 342 345 344 344
284 289 288 288 290 291 291 291 291 296 300 309 314 316 317 318 322 325 326 327 329 332 334 335 335 337 340 340 343 345 345 345
280 286 287 285 289 291 290 299 300 296 301 311 314 314 316 318 320 320 324 325 326 330 333 334 336 339 338 338 346 345 344 346
281 282 279 288 292 295 292 296 307 307 309 312 316 317 318 322 322 321 323 325 327 330 333 336 338 340 342 342 341 345 345 346
281 279 285 290 294 300 298 297 306 307 311 312 315 318 315 323 324 324 326 328 329 331 331 334 337 339 341 341 339 345 346 345
279 279 278 288 303 305 305 292 307 310 310 310 312 307 310 322 325 325 327 328 328 330 330 332 333 339 338 336 336 336 338 341
282 282 285 292 302 305 289 289 304 309 310 309 306 313 312 315 324 326 326 326 326 327 327 328 330 335 331 326 325 329 331 337
282 281 281 301 298 293 297 303 306 308 308 309 309 312 312 314 321 324 323 323 324 321 321 323 326 331 333 330 327 328 329 334
289 287 294 297 300 301 303 303 304 308 309 309 311 310 314 314 320 320 320 320 321 320 318 320 321 324 323 328 334 330 330 333
294 295 295 298 300 301 302 301 305 309 310 311 311 313 315 315 319 318 317 316 315 315 314 314 316 317 318 322 324 325 327 328
295 297 296 298 299 301 304 307 308 311 312 314 314 314 314 312 313 314 315 315 314 311 310 310 312 312 315 317 319 318 321 326
290 296 296 297 300 304 305 308 311 312 313 317 315 313 313 311 312 312 311 311 309 308 308 307 307 307 308 313 316 316 318 319
299 302 304 305 306 310 309 308 310 311 312 309 311 311 311 310 310 311 310 309 308 306 306 306 305 305 306 308 310 310 311 316
Wind_Speed
2 3 1 6 3 2 2 2 3 5 9 8 7 10 9 9 7 14 21 22 25 24 24 22 21 21 21 18 17 14 15 12
6 5 4 3 3 3 4 2 5 6 6 6 11 14 20 22 13 12 17 21 21 22 23 21 20 20 21 20 19 17 15 13
2 2 4 6 4 4 4 4 4 3 8 6 5 9 20 21 18 16 13 19 20 20 20 21 19 20 19 18 18 16 15 14
6 5 4 4 4 5 5 7 3 3 9 10 7 15 17 23 22 17 9 14 16 16 15 15 18 17 19 18 17 17 16 14
10 7 6 5 2 2 2 3 4 3 7 15 19 21 20 21 24 14 12 7 8 13 17 19 19 18 18 17 18 17 14 15
8 8 3 3 3 5 3 3 5 8 17 10 18 14 24 22 19 13 12 3 4 11 14 17 19 19 18 17 16 15 14 14
7 8 3 6 8 8 7 8 8 12 23 14 8 15 15 15 16 11 13 10 7 4 5 4 4 11 12 11 13 14 13 13
4 7 8 5 8 14 14 15 16 12 13 2 11 7 9 13 14 11 10 10 6 8 5 8 6 5 4 9 11 11 12 16
6 4 6 5 12 11 6 7 6 7 8 6 6 5 7 10 11 10 9 10 9 4 7 8 8 8 6 5 5 11 14 13
4 2 4 7 5 7 8 10 7 6 5 7 7 6 6 4 7 6 7 7 7 6 2 4 3 2 5 6 4 10 10 10
1 3 7 6 4 4 2 10 8 8 7 7 7 5 5 3 5 7 5 3 4 5 6 3 4 1 6 6 8 5 6 8
2 3 6 6 3 3 0 9 2 4 7 4 6 6 4 4 3 6 4 2 2 3 4 6 5 5 7 9 14 9 8 7
3 5 9 5 6 1 4 8 13 11 9 6 2 3 7 17 8 5 1 5 5 5 3 4 4 8 14 13 12 8 8 6
1 3 9 3 4 1 5 8 9 13 13 12 2 5 8 14 17 6 5 7 3 5 5 6 6 6 6 11 8 8 6 2
9 8 5 3 8 6 4 10 15 10 16 16 7 8 10 7 21 4 6 7 4 4 6 7 8 8 5 4 7 10 5 7
2 5 9 12 8 6 5 10 14 10 13 16 8 10 9 20 8 8 8 7 7 8 10 10 8 9 8 6 6 4 4 7
6 14 11 10 6 5 9 8 13 11 13 12 5 5 9 15 15 9 9 5 11 10 10 8 10 11 10 8 4 8 8 2
6 5 4 11 7 9 8 10 10 9 6 7 9 5 7 12 6 10 10 9 10 9 10 11 14 15 14 13 11 9 9 6
5 3 5 13 11 11 7 9 6 8 11 13 14 12 11 7 8 9 9 9 9 8 8 9 13 12 10 11 11 12 9 6
Wind_Direction
306 298 66 314 37 276 161 339 64 246 291 304 290 315 326 290 232 216 209 205 201 196 192 191 193 192 191 192 198 191 194 189
292 16 15 117 245 8 9 276 285 295 281 245 328 332 334 325 310 248 221 209 202 198 194 191 191 191 192 195 193 195 191 192
26 24 258 350 20 22 123 132 194 304 269 231 340 326 324 316 310 294 229 211 200 199 195 195 188 189 191 193 194 194 191 193
250 288 293 187 106 103 105 296 254 204 261 284 319 337 339 325 315 312 263 208 202 192 182 184 190 193 192 193 194 194 192 190
344 359 357 52 344 98 138 79 230 236 261 341 334 338 331 323 320 312 299 200 176 177 178 182 190 190 194 198 197 194 187 188
188 221 174 261 242 278 159 155 248 238 286 309 308 323 322 327 321 323 310 92 201 186 192 190 189 189 192 195 197 195 192 191
244 256 256 235 251 243 231 219 215 281 283 289 299 304 310 318 322 328 323 325 89 88 92 128 204 199 189 198 193 185 186 197
266 255 225 245 268 263 247 253 258 253 267 197 315 301 319 343 325 334 324 335 2 104 101 92 121 139 205 179 184 185 194 199
258 259 308 275 229 231 238 232 213 225 240 309 303 304 341 351 325 335 336 347 324 289 144 156 164 149 160 184 182 192 196 201
255 353 230 241 273 251 248 256 231 260 268 287 270 250 275 342 307 305 327 342 327 315 348 88 109 153 127 151 207 191 201 191
252 231 291 289 294 25 356 288 244 234 232 277 302 275 270 304 300 259 255 311 295 316 343 38 78 105 193 187 158 161 185 182
112 249 256 230 157 353 105 280 249 249 274 303 324 297 309 292 293 277 319 305 311 342 13 356 9 89 108 89 74 76 63 45
229 249 283 266 301 252 174 275 329 320 304 267 231 347 327 323 267 243 232 32 25 51 47 324 0 90 93 97 99 95 63 45
169 217 277 190 344 359 259 298 306 310 302 298 314 279 291 317 272 227 117 76 20 58 35 14 9 72 125 122 128 109 135 10
191 221 261 255 238 272 271 276 297 288 296 301 288 310 250 273 275 185 86 77 55 71 58 40 35 46 37 325 153 169 188 140
330 266 288 297 287 266 245 266 279 275 277 285 242 264 1 354 270 102 65 52 56 57 54 48 37 56 44 33 52 26 89 134
253 280 292 276 245 285 307 278 281 283 282 273 79 22 73 28 347 27 72 75 65 46 33 26 46 39 30 14 41 88 78 80
240 233 199 278 291 313 307 304 323 316 318 27 101 76 60 76 1 14 42 48 58 59 50 20 39 33 12 7 21 55 58 45
238 186 231 277 299 299 15 356 0 53 47 66 51 61 60 71 38 35 34 49 61 64 61 44 36 39 9 11 26 40 47 33